Tracking 32214 objects as of 19-Nov-2025
HD Live streaming from Space Station
objects crossing your sky now

DIRECTV 6 (TEMPO 2)

Track DIRECTV 6 (TEMPO 2) now!
DIRECTV 6 (TEMPO 2) is classified as:


NORAD ID: 24748
Int'l Code: 1997-011A
Perigee: 36,036.6 km
Apogee: 36,252.7 km
Inclination: 12.9 °
Period: 1,454.1 minutes
Semi major axis: 42515 km
RCS: 12.5892 m2 (large)
Launch date: March 8, 1997
Source: United States (US)
Launch site: AIR FORCE EASTERN TEST RANGE (AFETR)

Direct-to-home TV; 32 Ku-band transponders
Your satellite tracking list
Your tracking list is empty




NASA's NSSDC Master Catalog

Two Line Element Set (TLE):
1 24748U 97011A   25322.54809764 -.00000284  00000-0  00000-0 0  9995
2 24748  12.8646  24.2833 0025413 302.7957  69.3322  0.99033023104407
Source of the keplerian elements: AFSPC